Location: Haieshausen
(51.8387°N, 9.9720°E)
Time: 04:30:13
(UTC+00:00)

Cosmos 1666 - Pass Details

Date: 14 July 2020
Orbit: 497 x 521 km, 82.5° (Epoch: 10 August)

Event Time Altitude Azimuth Distance (km) Brightness Sun altitude
Exits shadow 01:13:17 12° 160° (SSE) 1,618 4.8 -12.9°
Maximum altitude 01:16:31 38° 93° (E) 795 3.8 -12.7°
Drops below altitude 10° 01:20:01 10° 25° (NNE) 1,724 6.9 -12.4°
Sets 01:22:14 0° 17° (NNE) 2,611 8.2 -12.3°
